Theta_e
303 300 301 306 313 316 323 329 326 322 335 331 327 331 329 343 342 339 339 344 355 361 363 363 363 363 363 363 362 362 361 360
299 298 310 315 318 319 322 326 327 327 324 330 334 333 335 347 344 339 340 348 358 360 361 362 361 361 361 361 361 360 359 357
298 303 313 317 324 324 322 323 324 329 326 326 333 336 338 345 347 345 345 349 355 360 360 360 359 360 359 359 358 358 357 356
294 302 315 320 327 324 323 324 326 328 329 328 334 334 337 340 345 353 346 348 351 359 359 359 359 359 358 357 357 356 355 355
298 299 310 318 327 323 322 321 325 331 326 329 331 335 335 335 352 350 349 348 349 352 355 358 358 358 358 357 356 355 355 355
299 300 307 317 320 325 324 323 331 332 322 325 332 336 333 337 344 345 347 347 345 347 349 351 353 359 359 357 356 355 355 355
299 308 312 317 315 326 330 325 326 328 329 333 336 335 327 326 331 343 343 344 345 345 345 345 348 354 356 356 355 355 353 352
306 313 312 315 318 324 321 324 323 326 331 333 333 329 325 324 324 334 337 339 342 340 342 341 349 347 344 346 346 343 336 335
308 312 317 316 319 323 319 315 326 325 330 329 329 326 325 326 325 326 335 338 339 339 341 340 342 341 341 343 340 336 334 333
309 309 311 309 321 319 320 323 329 326 332 331 330 328 325 324 325 325 327 331 336 338 335 339 340 339 343 340 335 333 334 335
308 307 307 310 313 318 319 324 327 329 329 330 328 328 324 324 325 323 323 328 335 333 339 340 335 333 335 332 333 335 336 336
306 305 304 305 314 319 320 326 326 327 324 328 329 328 325 325 323 322 323 326 332 335 339 337 338 333 334 334 333 337 335 335
305 305 302 306 304 309 322 325 324 327 327 329 329 330 326 327 326 324 323 332 335 338 339 339 337 336 335 337 336 336 333 331
303 306 305 303 297 308 321 321 320 325 326 327 328 330 330 333 336 335 329 333 338 341 342 338 339 339 336 335 336 334 331 329
301 307 305 303 299 308 317 321 320 321 323 325 328 333 336 337 338 337 336 332 334 339 341 339 341 339 339 335 335 330 329 327
298 303 304 301 301 307 310 312 319 318 323 330 330 329 333 337 338 338 334 343 336 339 339 341 343 340 336 335 330 329 327 327
303 306 303 302 302 306 309 309 312 321 322 330 330 329 330 334 336 339 331 341 346 342 344 346 341 335 333 330 329 330 326 329
304 308 304 303 303 306 308 309 312 326 323 324 327 329 328 330 329 328 330 340 340 340 339 337 336 333 334 332 334 331 328 325
300 304 303 303 300 303 308 308 324 328 327 324 322 326 327 326 323 327 331 337 335 336 335 335 335 333 334 332 332 329 325 320
303 298 292 301 291 299 304 305 315 321 325 322 322 323 328 333 330 327 333 335 330 329 329 329 331 331 327 327 323 323 319 319
Wind_Speed
4 3 5 6 8 8 5 13 9 5 9 6 6 12 7 23 19 18 12 10 11 14 14 14 13 12 11 11 10 9 8 7
3 7 4 8 13 3 5 9 18 17 8 5 11 8 11 21 22 19 14 11 13 14 14 14 13 12 11 10 9 8 6 5
3 6 2 6 18 11 15 9 17 20 13 6 5 14 14 20 20 19 14 12 12 15 14 14 13 12 10 9 8 7 5 4
6 2 5 4 21 18 21 21 16 18 13 5 8 7 7 10 18 18 17 12 12 14 13 13 12 11 10 9 8 7 5 4
10 7 3 9 17 10 7 29 12 14 9 9 8 8 8 10 18 17 16 13 9 8 11 12 12 11 10 10 8 7 6 6
9 8 4 2 9 20 22 9 7 18 8 13 14 12 8 15 17 18 15 14 10 8 7 7 7 12 11 10 9 8 8 8
13 4 7 6 6 5 10 15 28 4 17 18 16 12 8 7 12 14 13 14 13 11 10 9 8 9 11 12 11 11 9 9
14 2 4 3 12 15 15 18 27 11 15 16 16 10 11 8 7 14 16 15 16 15 13 12 10 9 8 7 5 6 6 6
17 5 9 7 20 6 19 14 7 11 5 5 10 10 13 12 10 10 18 14 16 15 14 14 10 8 5 4 4 4 6 6
14 4 5 7 15 7 10 5 14 9 13 6 10 10 11 11 10 9 10 14 14 15 8 10 8 7 8 6 5 4 5 6
12 10 5 2 11 10 8 14 12 7 19 9 7 10 9 11 9 9 8 9 15 10 10 10 6 4 5 6 5 5 5 5
10 11 5 2 20 15 15 17 12 15 15 12 11 13 7 10 11 9 9 9 8 9 10 9 6 6 5 5 6 5 4 5
6 7 5 3 6 9 22 17 20 20 19 21 20 12 9 10 12 11 9 12 10 8 9 9 7 6 5 4 5 6 5 6
9 9 10 4 9 10 23 17 15 21 22 22 25 13 15 25 24 25 4 12 10 9 7 8 7 4 4 4 6 5 5 6
13 13 8 9 9 9 17 19 15 13 16 20 4 13 13 18 17 17 23 1 8 8 9 8 7 5 6 7 8 7 7 7
11 12 13 7 7 9 10 10 23 17 15 23 20 16 13 15 23 17 16 19 3 4 6 7 5 6 6 9 7 5 6 5
12 5 8 9 7 10 9 4 6 18 19 19 21 14 15 19 19 20 7 7 17 12 6 7 3 4 4 4 3 5 5 6
9 11 4 9 7 3 5 6 7 18 15 17 14 12 10 18 22 19 5 8 6 8 8 4 3 1 3 4 4 4 3 3
8 13 6 4 2 3 10 4 17 16 16 12 18 16 12 9 8 6 8 1 2 5 6 4 5 4 4 5 2 3 3 2
12 7 4 3 6 6 9 10 14 16 19 17 19 15 13 11 8 9 6 3 6 7 8 6 5 6 7 4 3 2 2 2
Wind_Direction
162 194 191 157 224 202 273 303 140 102 106 68 98 121 118 127 134 126 128 130 138 135 134 131 131 128 127 130 130 129 131 125
92 273 261 185 212 244 272 312 112 113 75 89 152 133 131 141 134 131 132 130 140 139 135 134 136 136 134 132 135 131 127 120
310 247 172 44 39 313 319 280 107 111 108 75 89 123 136 144 140 133 132 137 141 140 140 139 142 136 135 134 129 131 140 135
274 90 204 64 86 289 331 307 124 114 117 106 125 108 149 157 133 138 134 138 142 141 143 141 142 136 134 137 145 151 147 151
294 305 153 157 156 178 242 276 131 134 122 145 129 148 171 128 126 131 129 133 134 140 146 144 142 137 141 148 151 152 163 178
281 296 281 199 161 132 181 313 19 133 148 157 153 173 185 122 135 134 139 138 142 140 141 145 143 147 151 154 159 168 188 196
275 285 224 179 98 28 348 3 341 164 131 137 155 169 121 122 134 138 142 148 150 158 167 163 157 163 161 166 175 191 200 202
266 192 224 217 117 139 94 2 288 25 103 139 159 147 149 165 166 150 155 167 160 167 171 168 165 161 169 179 184 193 193 197
275 218 193 210 153 116 132 182 195 273 164 248 163 162 164 181 169 172 171 170 165 173 171 167 158 169 175 184 185 190 199 181
265 246 200 344 146 101 142 223 138 264 249 161 281 180 176 175 173 175 158 165 163 180 140 154 157 181 175 175 178 170 172 111
277 297 223 162 88 125 121 196 180 186 270 187 248 205 180 164 162 155 143 133 148 147 135 145 158 190 160 173 152 156 118 109
269 287 312 185 134 122 203 196 176 140 230 275 293 239 156 137 140 141 146 131 141 133 128 123 116 129 118 120 133 110 102 98
298 259 261 285 298 161 179 198 162 133 229 254 257 246 165 140 149 143 151 139 139 130 118 120 122 120 124 140 116 111 110 93
272 263 256 150 261 284 167 174 185 180 192 212 230 237 68 72 36 15 99 134 137 140 128 127 132 123 94 86 84 102 90 68
272 251 202 167 236 254 150 178 195 192 220 213 160 90 68 79 68 18 13 357 144 144 150 151 137 128 83 80 74 75 79 70
254 263 172 194 215 247 262 220 201 206 59 104 101 113 95 77 60 11 344 348 328 120 139 119 123 96 81 83 80 88 88 65
281 303 140 195 209 247 269 227 169 90 97 105 104 120 119 123 123 168 232 2 325 103 90 87 39 78 71 83 88 75 67 67
307 338 90 200 224 225 277 292 135 113 108 121 113 127 122 132 151 189 139 70 343 45 87 63 83 69 113 100 84 84 80 77
292 313 325 138 309 286 294 328 104 106 107 94 114 127 116 129 132 112 119 311 133 80 77 54 86 90 78 70 74 94 125 98
290 325 275 129 256 253 241 252 104 102 115 123 125 125 122 131 152 148 181 149 61 63 75 61 60 71 94 95 107 155 120 159